Location: *
(55.5998°N, 39.1332°E)
Time: 20:39:49
(UTC+00:00)

Daily predictions for brighter satellites

Satellite Brightness Start Highest point End
(mag) Time Altitude Azimuth Time Altitude Azimuth Time Altitude Azimuth
Cosmos 2333 4.2 14:01:52 10° SSW 14:07:29 80° ESE 14:13:10 10° NE
Helios 1A Rocket 4.1 14:07:01 10° N 14:10:24 35° WNW 14:13:45 10° SW
USA 306 1.7 14:12:13 10° WSW 14:14:01 51° S 14:16:30 10° E
ATLAS 2AS CENTAUR R/B 2.9 14:07:49 10° NW 14:14:38 54° NNE 14:21:12 10° E
Cosmos 2084 3.7 14:11:16 10° WSW 14:15:19 54° NNW 14:19:14 10° NE
Aureole 3 Rocket 3.7 14:13:53 10° NNW 14:17:22 45° W 14:20:21 10° SSW
Meteor 1-23 Rocket 4.4 14:15:19 10° S 14:20:41 50° E 14:26:05 10° NNE
Cosmos 2344 4.1 14:15:09 10° S 14:21:55 37° ESE 14:28:30 10° NE
PSLV R/B 3.5 14:18:51 10° SE 14:22:48 53° ENE 14:26:49 10° N
SL-16 R/B 2.9 14:17:32 10° NNE 14:23:46 70° WNW 14:30:00 10° SSW
ADEOS Rocket 3.9 14:20:13 10° S 14:25:36 50° W 14:30:58 10° NNW
SL-19 R/B 4.4 14:20:01 10° SSE 14:25:58 86° ENE 14:31:39 10° NNW
Cosmos 1818 3.8 14:22:02 10° NW 14:27:23 50° NNE 14:32:41 10° ESE
SMAP 3.0 14:23:14 10° SSE 14:27:53 81° ENE 14:32:35 10° NNW
Cosmos 2369 Rocket 3.2 14:23:12 10° NNW 14:27:55 27° NNE 14:32:39 10° E
Cosmos 1634 Rocket 4.0 14:23:13 10° N 14:29:36 79° ENE 14:35:56 10° SSE
ACS3 Solar Sail 2.4 14:23:59 10° ESE 14:29:42 36° ENE 14:35:24 10° N
Meteor 1-13 Rocket 4.4 14:25:21 10° S 14:31:16 88° ESE 14:37:17 10° NNE
Cosmos 1953 2.6 14:27:59 10° N 14:31:31 39° ENE 14:35:02 10° SE
DNEPR-1 R/B 3.8 14:27:13 10° NW 14:32:28 89° NE 14:36:55 10° SE
COSMOS 2428 3.1 14:27:41 10° S 14:33:07 47° ESE 14:38:32 10° NE
Cosmos 2333 Rocket 2.7 14:28:28 10° SW 14:34:03 60° NW 14:39:43 10° NNE
Cosmos 990 Rocket 4.1 14:30:04 10° NNW 14:35:19 85° WSW 14:40:34 10° SSE
Cosmos 372 Rocket 4.1 14:31:45 10° NNW 14:36:44 51° NE 14:41:41 10° SE
CZ-2D R/B 3.7 14:34:15 10° S 14:38:31 76° WSW 14:42:45 10° NNW
Cosmos 1174 4.0 14:35:26 10° NW 14:38:51 70° SW 14:42:58 10° SE
Resurs 01 Rocket 3.5 14:42:35 12° NE 14:42:35 12° NE 14:44:10 10° NNE
Meteor 1-16 Rocket 4.1 14:37:57 10° NNW 14:43:25 75° ENE 14:49:00 10° SSE
Cosmos 2322 Rocket 3.0 14:38:15 10° WSW 14:43:41 48° NW 14:49:09 10° NNE
Cosmos 1869 Rocket 4.1 14:41:41 10° NNW 14:46:05 65° W 14:50:29 10° S
Cosmos 2360 Rocket 2.9 14:41:12 10° SW 14:46:43 52° NW 14:52:18 10° NNE
IGS 5A 3.3 14:43:27 10° SSE 14:47:27 73° ENE 14:51:29 10° NNW
Meteor 2-17 Rocket 4.5 14:43:29 10° S 14:49:24 58° E 14:55:21 10° NNE
Cosmos 1908 Rocket 4.4 14:47:11 10° N 14:50:55 27° ENE 14:54:37 10° ESE
JB-3 4.2 14:47:03 10° NNE 14:50:57 87° ESE 14:54:46 10° SSW
Cosmos 2297 4.4 14:45:44 10° NNW 14:51:01 36° NE 14:56:17 10° ESE
AQUARIUS 4.1 14:46:54 10° SSE 14:51:20 90° N 14:55:47 10° NNW
SL-16 R/B 3.5 14:48:40 10° W 14:53:48 34° NW 14:58:57 10° NNE
Cosmos 1937 Rocket 3.5 14:51:14 10° NNW 14:56:18 56° NE 15:01:22 10° SE
Helios 1B rocket 4.2 14:58:12 13° NNE 14:58:12 13° NNE 14:59:03 10° NNE
ASTEX 1 4.4 14:55:45 10° SSW 15:00:28 50° W 15:05:13 10° NNW
Cosmos 1707 Rocket 3.9 14:57:17 10° SSE 15:01:29 44° E 15:05:43 10° NNE
Cosmos 1943 Rocket 2.4 14:56:32 10° NW 15:02:13 75° WSW 15:07:50 10° SSE
Okean 3 3.6 14:58:48 10° SSE 15:02:44 47° E 15:06:43 10° NNE
Meteor 1-31 Rocket 2.9 15:02:29 10° SE 15:05:52 41° ENE 15:09:17 10° N
Okean 2 3.6 15:03:58 10° SSE 15:07:42 41° E 15:11:06 12° NNE
Cosmos 2237 Rocket 2.7 15:05:11 10° S 15:10:28 41° ESE 15:14:18 18° NE
CZ-4 R/B 4.2 15:06:43 10° SSE 15:10:43 74° ENE 15:14:43 10° NNW
Tsikada Rocket 4.3 15:05:26 10° SSW 15:11:34 72° WNW 15:17:47 10° N
RESURS DK-1 3.0 15:11:31 10° NW 15:15:28 56° WSW 15:19:24 10° SSE
Cosmos 2278 Rocket 3.2 15:10:23 10° NW 15:15:52 51° WSW 15:21:19 10° S
CZ-2C R/B 3.1 15:14:47 23° ESE 15:16:06 32° ENE 15:19:09 10° N
Cosmos 2180 Rocket 4.5 15:12:10 10° NNW 15:18:33 87° ENE 15:24:48 10° S
Cosmos 1862 Rocket 3.6 15:15:03 10° S 15:19:20 57° E 15:23:42 10° NNE
CZ-4C R/B 2.9 15:17:40 10° S 15:21:30 27° ESE 15:22:57 23° E
Cosmos 2219 Rocket 2.9 15:16:23 10° WSW 15:21:50 51° NW 15:27:00 12° NNE
COSMO-SKYMED 1 2.8 15:18:11 12° NNE 15:21:58 47° E 15:26:10 10° S
NOAA 6 3.9 15:16:57 10° SSE 15:22:01 67° ENE 15:27:08 10° NNW
BlueWalker 3 2.5 15:20:08 10° W 15:23:42 50° SSW 15:25:49 22° SE
Cosmos 1455 4.3 15:21:21 10° NW 15:24:02 24° W 15:26:40 10° SSW
Nadezhda 4 Rocket 4.1 15:19:46 10° SSE 15:25:37 49° E 15:31:32 10° NNE
Cosmos 1782 Rocket 4.2 15:22:54 10° N 15:26:46 31° ENE 15:27:21 29° E
Meteor 1-21 4.4 15:22:58 10° SSW 15:28:35 77° WNW 15:34:18 10° NNE
CZ-4B R/B 3.4 15:26:23 10° SSE 15:29:58 71° ENE 15:33:30 10° NNW
ISS -2.1 15:30:15 10° SSW 15:32:50 21° SSE 15:33:12 20° SE
USA 215 3.2 15:28:52 23° ENE 15:33:14 87° NNW 15:39:48 10° W
Cosmos 1461 4.3 15:30:54 10° NW 15:33:54 21° N 15:34:34 20° NNE
Cosmos 1763 Rocket 3.5 15:29:05 10° SSW 15:34:17 85° WNW 15:38:33 15° NNE
Cosmos 1697 Rocket 4.5 15:30:57 10° NW 15:34:36 17° N 15:36:41 14° NNE
Cosmos 1733 Rocket 3.9 15:31:38 10° NNW 15:35:56 53° W 15:40:13 10° S
CZ-4B R/B 4.1 15:37:02 25° NE 15:37:02 25° NE 15:41:18 10° N
YAOGAN 1 2.4 15:33:10 10° SSE 15:37:26 75° ENE 15:41:44 10° NNW
Cosmos 540 Rocket 3.4 15:35:03 10° SSW 15:40:12 88° ESE 15:44:01 18° NNE
SL-24 R/B 4.5 15:34:39 10° SSE 15:40:18 76° ENE 15:45:16 10° NNW
Cosmos 2322 4.1 15:35:14 10° SW 15:40:55 64° NW 15:45:32 16° NNE
SPOT 1/Viking Rocket 3.5 15:36:38 10° SSE 15:41:42 60° ENE 15:46:47 10° N
Landsat 7 4.0 15:37:20 10° S 15:42:01 72° WSW 15:46:44 10° NNW
Cosmos 468 Rocket 3.9 15:38:35 10° SSW 15:43:46 78° ESE 15:47:09 22° NNE
USA 306 2.5 15:42:53 10° W 15:45:01 44° SSW 15:45:01 44° SSW
Cosmos 1656 Rocket 3.5 15:41:37 10° NNW 15:47:06 76° NE 15:51:56 14° SE
Cosmos 1898 Rocket 4.3 15:42:53 10° NW 15:48:03 54° WSW 15:53:12 10° S
Cosmos 1703 Rocket 4.0 15:44:00 10° SSE 15:47:57 40° E 15:47:57 40° E
Cosmos 1980 Rocket 4.1 15:45:11 10° NW 15:48:54 17° N 15:51:13 14° NNE
Cosmos 2228 Rocket 3.3 15:45:26 10° SSW 15:49:58 74° WNW 15:54:34 10° N
Cosmos 1553 Rocket 4.3 15:46:32 10° N 15:52:19 40° ENE 15:54:23 31° ESE
Resurs 1-3 3.4 15:48:35 10° SSE 15:52:52 68° ENE 15:57:12 10° N
Cosmos 841 Rocket 3.6 15:48:12 10° S 15:53:17 52° ESE 15:54:57 37° ENE
Cosmos 2084 4.5 15:51:13 10° WNW 15:54:47 29° N 15:55:26 28° NNE
SL-16 R/B 3.0 15:54:46 10° SSE 15:58:59 31° ESE 15:58:59 31° ESE
NOSS 8 (E) 4.2 15:56:18 10° SW 15:59:52 81° SSW 15:59:52 81° SSW
Cosmos 1980 3.6 15:54:26 10° SSW 16:00:05 84° ESE 16:03:07 29° NE
Okean 1-7 2.9 16:00:16 10° S 16:04:33 89° W 16:06:52 27° N
ATLAS 2AS CENTAUR R/B 2.8 15:59:03 10° NW 16:05:52 71° SW 16:11:34 15° SE
Cosmos 1300 Rocket 3.5 16:01:47 10° N 16:05:39 57° NE 16:05:39 57° NE
NOSS 0 Rocket 4.0 16:01:47 10° SW 16:07:57 77° NW 16:11:40 26° NNE
ADEOS 3.5 16:08:03 40° SE 16:09:44 59° ENE 16:14:53 10° NNW
SKYMED 2 3.8 16:06:44 17° N 16:10:05 69° WNW 16:14:25 10° SSW
CZ-4 R/B 3.4 16:13:23 17° N 16:13:23 17° N 16:14:26 10° N
Cosmos 1818 4.1 16:05:45 10° NW 16:11:06 57° SW 16:15:36 14° SSE
Cosmos 1092 Rocket 4.0 16:05:25 10° SSE 16:11:24 56° E 16:17:30 10° NNE
Cosmos 2369 Rocket 2.0 16:07:10 10° NNW 16:12:48 79° NE 16:15:05 37° SE
ACS3 Solar Sail 2.3 16:06:37 10° S 16:12:58 64° W 16:19:21 10° NNW
COSMOS 2428 3.5 16:11:55 10° WSW 16:17:24 47° NW 16:20:53 22° NNE
Resurs 01 Rocket 2.8 16:20:00 30° N 16:20:00 30° N 16:22:23 10° N
CBERS 1 LM4 rocket 4.4 16:13:14 10° SSE 16:18:22 86° ENE 16:23:43 10° NNW
Cosmos 2333 Rocket 4.0 16:15:01 10° WNW 16:19:31 24° NNW 16:22:33 16° NNE
EO 1 Delta rocket 4.2 16:16:11 10° N 16:21:02 65° WNW 16:25:35 10° SSW
Cosmos 2322 Rocket 4.1 16:24:55 10° WNW 16:29:06 21° NNW 16:31:38 16° NNE
Meteor 2-12 Rocket 4.3 16:23:17 10° S 16:29:22 84° ESE 16:35:33 10° NNE
Helios 1B rocket 4.4 16:33:11 18° NNW 16:33:11 18° NNW 16:34:13 10° NNW
PAYLOAD B 4.1 16:30:22 63° E 16:30:47 66° ENE 16:36:22 10° NNW
CZ-4B DEB 4.0 16:30:08 45° SSE 16:31:53 79° ENE 16:37:23 10° NNW
Cosmos 2360 Rocket 4.1 16:27:40 10° WNW 16:32:01 22° NNW 16:34:38 16° NNE
Cosmos 1627 Rocket 4.4 16:28:03 10° S 16:34:26 79° E 16:40:50 10° NNE
Okean O Rocket 4.2 16:39:07 10° N 16:39:07 10° N 16:39:07 10° N
Cosmos 2297 3.9 16:29:55 10° NW 16:35:40 71° WSW 16:38:18 33° SSE
Cosmos 2344 3.5 16:28:21 10° WSW 16:35:40 75° NNW 16:38:47 38° NE
Cosmos 2263 4.1 16:30:54 10° NW 16:36:37 87° NE 16:37:35 64° SE
CZ-4B R/B 3.8 16:39:07 51° N 16:39:07 51° N 16:42:51 10° NNW
CSL-04 Rocket 4.0 16:40:06 48° NNE 16:40:06 48° NNE 16:44:06 10° NNW
SL-16 R/B 4.1 16:35:48 10° NW 16:39:39 18° N 16:41:21 16° N
Cosmos 2026 Rocket 3.9 16:33:54 10° S 16:40:17 86° ESE 16:46:42 10° NNE
Cosmos 2237 Rocket 2.8 16:48:52 10° SW 16:54:27 53° NW 16:56:08 40° N
COSMO-SKYMED 1 4.4 16:55:23 16° N 16:58:00 29° WNW 17:01:44 10° WSW
BlueWalker 3 4.3 16:58:08 10° W 16:59:51 19° WSW 16:59:51 19° WSW
Cosmos 2219 Rocket 4.0 17:02:51 10° WNW 17:07:05 21° NNW 17:08:42 19° N
ISS -0.5 17:05:54 10° WSW 17:06:06 11° WSW 17:06:06 11° WSW
CZ-4C R/B 2.5 17:04:18 10° SW 17:08:01 57° WSW 17:08:01 57° WSW
Cosmos 1125 Rocket 4.4 17:09:28 10° NNW 17:12:55 42° NNW 17:12:55 42° NNW
USA 215 3.1 17:16:12 82° NNE 17:16:15 82° N 17:22:49 10° WNW
CZ-4B R/B 4.0 17:18:54 43° NNW 17:18:54 43° NNW 17:22:29 10° NNW
Cosmos 1697 Rocket 4.5 17:15:45 10° NNW 17:18:24 21° N 17:18:24 21° N
Cosmos 1980 Rocket 4.2 17:30:33 10° NNW 17:32:57 19° N 17:32:57 19° N
SL-16 R/B 3.6 17:37:52 10° SW 17:40:55 32° WSW 17:40:55 32° WSW
Resurs 01 Rocket 4.4 17:57:26 15° NW 17:57:26 15° NW 17:58:25 10° NW
Cosmos 2369 Rocket 4.0 17:51:49 10° NW 17:56:16 25° WSW 17:56:55 24° WSW
Cosmos 2333 Rocket 4.5 18:02:07 10° NW 18:04:32 16° NNW 18:04:32 16° NNW
